Location: Gälforsberget
(66.6500°N, 22.4167°E)
Time: 10:43:17
(UTC+00:00)

Terra - Pass Details

Date: 11 April 2026
Orbit: 688 x 691 km, 97.9° (Epoch: 10 May)

Event Time Altitude Azimuth Distance (km) Brightness Sun altitude
Rises 20:37:31 0° 225° (SW) 3,062 5.0 -12.0°
Reaches altitude 10° 20:40:49 10° 251° (WSW) 2,149 4.4 -12.2°
Maximum altitude 20:43:20 14° 283° (WNW) 1,875 4.6 -12.3°
Drops below altitude 10° 20:45:53 10° 316° (NW) 2,156 5.6 -12.4°
Sets 20:49:13 0° 341° (NNW) 3,077 7.1 -12.5°
